Estación de Las Viñas

Ultimos registro cada 15 minutos 72
Estación Fecha / Hora Temperatura Humedad Lluvia Velocidad Dirección Radiación Presion
72 Las Viñas 05-09-2026 17:45 14,2 33 0 2,7 133 18 1020,3
71 Las Viñas 05-09-2026 17:30 14,8 32 0 1,8 175 49 1020,2
70 Las Viñas 05-09-2026 17:15 15,3 31 0 0,9 136 100 1020,2
69 Las Viñas 05-09-2026 17:00 15,7 30 0 1,3 122 255 1020,3
68 Las Viñas 05-09-2026 16:45 16 29 0 2,2 165 248 1020,3
67 Las Viñas 05-09-2026 16:30 16,3 30 0 0,9 151 306 1020,5
66 Las Viñas 05-09-2026 16:15 16,5 29 0 0,9 168 146 1020,4
65 Las Viñas 05-09-2026 16:00 16,7 29 0 1,8 94 455 1020,5
64 Las Viñas 05-09-2026 15:45 16,7 30 0 3,6 97 318 1020,5
63 Las Viñas 05-09-2026 15:30 16,6 31 0 1,8 114 512 1020,5
62 Las Viñas 05-09-2026 15:15 16,7 29 0 1,3 151 329 1020,6
61 Las Viñas 05-09-2026 15:00 16,7 31 0 2,2 145 619 1020,5
60 Las Viñas 05-09-2026 14:45 16,6 32 0 1,8 129 654 1020,5
59 Las Viñas 05-09-2026 14:30 16,4 31 0 3,6 164 561 1020,6
58 Las Viñas 05-09-2026 14:15 16,4 30 0 1,8 143 592 1020,8
57 Las Viñas 05-09-2026 14:00 16,4 32 0 1,3 175 729 1021,2
56 Las Viñas 05-09-2026 13:45 16,3 35 0 2,7 99 747 1021,4
55 Las Viñas 05-09-2026 13:30 15,7 34 0 1,8 141 738 1021,7
54 Las Viñas 05-09-2026 13:15 15,4 34 0 2,2 133 770 1021,9
53 Las Viñas 05-09-2026 13:00 15,4 36 0 1,3 117 689 1022,1
52 Las Viñas 05-09-2026 12:45 15,6 36 0 2,2 185 779 1022,4
51 Las Viñas 05-09-2026 12:30 15,1 37 0 0,9 151 756 1022,5
50 Las Viñas 05-09-2026 12:15 14,9 41 0 1,3 68 772 1022,5
49 Las Viñas 05-09-2026 12:00 14,7 38 0 1,8 141 761 1022,8
48 Las Viñas 05-09-2026 11:45 14,6 41 0 1,8 147 394 1022,8
47 Las Viñas 05-09-2026 11:30 14,5 40 0 3,6 185 726 1023,1
46 Las Viñas 05-09-2026 11:15 14,6 41 0 2,7 143 707 1023
45 Las Viñas 05-09-2026 11:00 14,6 41 0 1,3 180 315 1023
44 Las Viñas 05-09-2026 10:45 14,3 43 0 1,3 62 649 1023,4
43 Las Viñas 05-09-2026 10:30 13,7 43 0 0,9 151 617 1023,6
42 Las Viñas 05-09-2026 10:15 12,9 50 0 1,3 164 577 1023,7
41 Las Viñas 05-09-2026 10:00 12 62 0 0,9 161 343 1023,7
40 Las Viñas 05-09-2026 09:45 11,3 67 0 0,9 159 378 1023,9
39 Las Viñas 05-09-2026 09:30 10,3 71 0 0,9 155 452 1023,8
38 Las Viñas 05-09-2026 09:15 9,3 73 0 0 166 403 1023,6
37 Las Viñas 05-09-2026 09:00 8,4 77 0 0 175 190 1024
36 Las Viñas 05-09-2026 08:45 7,4 80 0 0 143 49 1024
35 Las Viñas 05-09-2026 08:30 6,6 81 0 0,4 164 167 1024,1
34 Las Viñas 05-09-2026 08:15 5,7 84 0 0,4 164 148 1024,1
33 Las Viñas 05-09-2026 08:00 5,1 85 0 0 175 81 1023,9
32 Las Viñas 05-09-2026 07:45 4,6 87 0 0,4 214 37 1024
31 Las Viñas 05-09-2026 07:30 4,3 87 0 0 234 14 1023,9
30 Las Viñas 05-09-2026 07:15 4,3 87 0 0 121 9 1023,9
29 Las Viñas 05-09-2026 07:00 4,3 87 0 0 201 0 1023,8
28 Las Viñas 05-09-2026 06:45 4,5 87 0 0 224 0 1023,7
27 Las Viñas 05-09-2026 06:30 4,6 87 0 0 201 0 1023,7
26 Las Viñas 05-09-2026 06:15 4,7 87 0 0,4 185 0 1023,6
25 Las Viñas 05-09-2026 06:00 4,8 87 0 0 175 0 1023,7
24 Las Viñas 05-09-2026 05:45 4,9 87 0 0,4 278 0 1023,7
23 Las Viñas 05-09-2026 05:30 4,9 87 0 0,4 158 0 1023,7
22 Las Viñas 05-09-2026 05:15 5,1 87 0 0 162 0 1023,7
21 Las Viñas 05-09-2026 05:00 5,1 87 0 0,9 180 0 1023,9
20 Las Viñas 05-09-2026 04:45 5,2 87 0 0,4 198 0 1024
19 Las Viñas 05-09-2026 04:30 5,3 87 0 0,9 241 0 1024
18 Las Viñas 05-09-2026 04:15 5,4 87 0 0,9 220 0 1024,2
17 Las Viñas 05-09-2026 04:00 5,6 87 0 0 235 0 1024,2
16 Las Viñas 05-09-2026 03:45 5,7 87 0 0,9 216 0 1024,7
15 Las Viñas 05-09-2026 03:30 5,8 87 0 0,4 216 0 1024,7
14 Las Viñas 05-09-2026 03:15 5,9 87 0 0,9 146 0 1024,9
13 Las Viñas 05-09-2026 03:00 5,9 87 0 0,4 207 0 1025,1
12 Las Viñas 05-09-2026 02:45 6,1 87 0 0,9 196 0 1025,2
11 Las Viñas 05-09-2026 02:30 6,1 87 0 0,9 146 0 1025,3
10 Las Viñas 05-09-2026 02:15 6,2 87 0 0 210 0 1025,4
9 Las Viñas 05-09-2026 02:00 6,2 87 0 0,4 185 0 1025,4
8 Las Viñas 05-09-2026 01:45 6,2 87 0 0,9 215 0 1025,6
7 Las Viñas 05-09-2026 01:30 6,2 87 0 0,4 166 0 1025,7
6 Las Viñas 05-09-2026 01:15 6,2 87 0 0 162 0 1025,8
5 Las Viñas 05-09-2026 01:00 6,3 88 0 0,4 160 0 1026
4 Las Viñas 05-09-2026 00:45 6,3 88 0 0 152 0 1026,2
3 Las Viñas 05-09-2026 00:30 6,3 88 0 0,9 226 0 1026,3
2 Las Viñas 05-09-2026 00:15 6,4 88 0 0 226 0 1026,4
1 Las Viñas 05-09-2026 00:00 6,3 88 0 0 157 0 1026,6